Location: San Antonio
(29.4240°N, 98.4930°W)
Time: 16:49:53
(UTC-05:00)

BlueWalker 3 - Pass Details

Date: 24 June 2024
Orbit: 480 x 492 km, 53.2° (Epoch: 11 July)

Event Time Altitude Azimuth Distance (km) Brightness Sun altitude
Rises 03:31:22 0° 330° (NNW) 2,532 5.9 -30.4°
Reaches altitude 10° 03:33:46 10° 343° (NNW) 1,652 5.0 -30.1°
Enters shadow 03:34:52 16° 355° (N) 1,308 4.6 -30.0°
